Regional Weather Roundup
Issued by NWS

Home | Current Version | Previous Version | Graphics & Text | Print | Product List | Glossary On
Versions: 1 2 3 4 5 6 7 8 9 10 11 12 13 14 15 16 17 18 19 20 21 22 23 24 25 26 27 28 29 30 31 32 33 34 35 36 37 38 39 40 41 42 43 44 45 46 47 48 49 50
000
ASUS45 KCYS 270510
RWRWY

WYOMING REGIONAL WEATHER ROUNDUP
NATIONAL WEATHER SERVICE CHEYENNE WY
1100 PM MDT SAT JUL 26 2014

NOTE:  "FAIR" INDICATES FEW OR NO CLOUDS BELOW 12,000 FEET
WITH NO SIGNIFICANT WEATHER AND/OR OBSTRUCTIONS TO VISIBILITY.

WYZ001-270600-
YELLOWSTONE NATIONAL PARK

CITY           SKY/WX    TMP DP  RH WIND       PRES   REMARKS
LK YELLOWSTONE   N/A     46  30  53 NW3       30.47R
W YELLOWSTONE  NOT AVBL

$$
WYZ002>013-054>058-071-098>099-270600-
NORTHERN WYOMING

CITY           SKY/WX    TMP DP  RH WIND       PRES   REMARKS
JACKSON        PTCLDY    50  32  50 CALM      30.35R
CODY           NOT AVBL
GREYBULL       PTCLDY    74  29  19 NW9       30.18R
WORLAND        PTCLDY    65  34  31 E5        30.20R
SHERIDAN       CLEAR     54  43  66 SW6       30.26R
BUFFALO        CLEAR     60  35  39 NW7       30.32R
GILLETTE       CLEAR     52  40  63 CALM      30.26R
HULETT         FAIR      59  43  55 MISG      30.26
NEWCASTLE      FAIR      63  36  36 CALM      30.25

$$
WYZ014>020-022>026-101>103-270600-
CENTRAL WYOMING

CITY           SKY/WX    TMP DP  RH WIND       PRES   REMARKS
BIG PINEY      PTCLDY    55  26  32 NW13      30.38S
PINEDALE       PTCLDY    52  32  46 W8        30.39S
DUBOIS         FAIR      55  23  28 CALM      30.40R
LANDER         CLEAR     69  29  22 W8        30.29R
RIVERTON       CLEAR     70  32  24 NE10      30.29R
CASPER         PTCLDY    65  32  29 NE8       30.29R
DOUGLAS        CLEAR     64  34  32 NE9       30.28R

$$
WYZ021-027>030-104>119-270600-
SOUTHERN WYOMING

CITY           SKY/WX    TMP DP  RH WIND       PRES   REMARKS
EVANSTON       PTCLDY    67  28  23 E7        30.38R
KEMMERER       PTCLDY    61  27  27 N9        30.40R
FORT BRIDGER   FAIR      69  22  16 NW5       30.39S
ROCK SPRINGS   MOCLDY    73  18  12 CALM      30.34R
DIXON          FAIR      64  45  48 CALM      30.34S
RAWLINS        CLEAR     70  33  25 NE12      30.32R
SARATOGA       FAIR      64  43  45 SE9       30.34R
LARAMIE        CLEAR     58  49  72 S6        30.34S
CHEYENNE       PTCLDY    67  51  56 CALM      30.28F
TORRINGTON     CLEAR     69  47  45 E10       30.18R
PINE BLUFFS    FAIR      63  52  67 NE7       30.24S

$$


USA.gov is the U.S. government's official web portal to all federal, state and local government web resources and services.